User: anonymous   Login
Location: Caltech
(34.1382°N, 118.1253°W)
Time: 16:34:51
(UTC-08:00)
Language:

Cosmos 1758 Rocket - Orbit

View from above orbital plane
View from above orbital plane
View from above satellite
View from above satellite

Ground track
Ground track

The orbit data is extracted from the following two-line orbital elements,

1 16792U 86046B   15061.27609134  .00000533  00000-0  62604-4 0  9997
2 16792 082.4804 270.6917 0024605 168.2894 310.8932 14.82828453550696
Epoch (UTC): 02 March 2015 06:37:34
Eccentricity: 0.0024605
inclination: 82.4804°
perigee height: 603 km
apogee height: 637 km
right ascension of ascending node: 270.6917°
argument of perigee: 168.2894°
revolutions per day: 14.82828453
mean anomaly at epoch: 310.8932°
orbit number at epoch: 55069

The dashed part of the orbit path shows where the satellite is in the earth's shadow,  

DLR